Date String (YYYY-MM-DD hh:mm:ss) UTC,Instrument flags,Ambient pressure (hPa),Sample flow (lpm),Bypass flow (lpm),Sample temperature (°C),Ambient temperature (°C),ASC tube jacket temperature (°C),LED temperature (°C),Box temperature (°C),Sample RH (%),Span deviation,Mass concentration (μg/m³),Mass concentration (μg/m³),Mass concentration (μg/m³)
DateTimeUTC,F1_M11,P_M11,Q1_M11,Q2_M11,T1_M11,T2_M11,T3_M11,T4_M11,T5_M11,U1_M11,ZSPAN_M11,X0_M11,X2_M11,X1_M11
2022-10-30 16:00:00,,0829.0,5.01,0.00,23.7,22.6,00.0,32.4,25.6,10.1,0000.0,0008.71,0004.04,0003.78
2022-10-30 16:01:00,,0829.0,5.00,0.00,23.7,22.6,00.0,32.4,25.6,10.2,0000.0,0008.70,0004.02,0003.76
2022-10-30 16:02:00,,0829.1,5.00,0.00,23.7,22.7,00.0,32.4,25.6,10.0,0000.0,0008.75,0003.99,0003.72
2022-10-30 16:03:00,,0829.1,5.01,0.00,23.8,22.7,00.0,32.4,25.7,10.0,0000.0,0009.47,0003.97,0003.70
2022-10-30 16:04:00,,0829.0,4.98,0.00,23.8,22.7,00.0,32.5,25.7,10.0,0000.0,0009.55,0003.94,0003.66
2022-10-30 16:05:00,,0829.0,5.01,0.00,23.8,22.7,00.0,32.5,25.7,10.1,0000.0,0009.78,0003.92,0003.62
2022-10-30 16:06:00,,0829.0,4.99,0.00,23.8,22.7,00.0,32.5,25.7,10.1,0000.0,0009.65,0003.88,0003.58
2022-10-30 16:07:00,,0829.0,5.02,0.00,23.8,22.8,00.0,32.5,25.7,10.0,0000.0,0009.49,0003.82,0003.53
2022-10-30 16:08:00,,0829.0,4.99,0.00,23.8,22.8,00.0,32.5,25.7,10.1,0000.0,0009.27,0003.77,0003.48
2022-10-30 16:09:00,,0828.9,5.01,0.00,23.9,22.8,00.0,32.6,25.7,10.2,0000.0,0009.22,0003.73,0003.45
2022-10-30 16:10:00,,0828.9,5.00,0.00,23.9,22.8,00.0,32.6,25.8,10.3,0000.0,0008.86,0003.72,0003.42
2022-10-30 16:11:00,,0828.9,4.99,0.00,23.9,22.8,00.0,32.6,25.8,10.5,0000.0,0008.93,0003.68,0003.39
2022-10-30 16:12:00,,0828.9,5.01,0.00,23.9,22.9,00.0,32.6,25.9,10.3,0000.0,0009.03,0003.66,0003.36
2022-10-30 16:13:00,,0829.0,4.99,0.00,23.9,22.9,00.0,32.6,25.9,10.4,0000.0,0009.06,0003.65,0003.35
2022-10-30 16:14:00,,0828.9,5.00,0.00,24.0,23.0,00.0,32.6,26.0,10.1,0000.0,0008.29,0003.61,0003.32
2022-10-30 16:15:00,,0828.9,5.01,0.00,24.0,23.0,00.0,32.7,26.0,10.2,0000.0,0008.13,0003.57,0003.29
2022-10-30 16:16:00,,0828.8,4.99,0.00,24.0,23.0,00.0,32.7,26.0,10.3,0000.0,0007.85,0003.55,0003.28
2022-10-30 16:17:00,,0829.0,5.01,0.00,24.1,23.1,00.0,32.7,26.0,10.4,0000.0,0007.83,0003.54,0003.28
2022-10-30 16:18:00,,0829.0,5.01,0.00,24.1,23.1,00.0,32.7,26.0,10.3,0000.0,0007.89,0003.55,0003.28
2022-10-30 16:19:00,,0829.1,4.98,0.00,24.1,23.1,00.0,32.8,26.1,10.2,0000.0,0008.28,0003.57,0003.30
2022-10-30 16:20:00,,0829.3,5.01,0.00,24.2,23.2,00.0,32.8,26.1,10.2,0000.0,0008.42,0003.57,0003.29
2022-10-30 16:21:00,,0829.1,5.00,0.00,24.2,23.2,00.0,32.8,26.1,10.2,0000.0,0008.33,0003.53,0003.29
2022-10-30 16:22:00,,0829.4,4.99,0.00,24.2,23.2,00.0,32.8,26.1,10.3,0000.0,0007.33,0003.53,0003.28
2022-10-30 16:23:00,,0829.4,5.01,0.00,24.2,23.2,00.0,32.9,26.2,10.2,0000.0,0007.12,0003.51,0003.28
2022-10-30 16:24:00,,0829.3,5.01,0.00,24.3,23.2,00.0,32.9,26.2,10.1,0000.0,0007.01,0003.52,0003.28
2022-10-30 16:25:00,,0829.3,4.98,0.00,24.3,23.3,00.0,32.9,26.2,10.0,0000.0,0007.13,0003.54,0003.27
2022-10-30 16:26:00,,0829.4,5.01,0.00,24.3,23.3,00.0,32.9,26.3,10.1,0000.0,0007.16,0003.56,0003.27
2022-10-30 16:27:00,,0829.3,5.01,0.00,24.3,23.3,00.0,33.0,26.3,10.1,0000.0,0007.72,0003.56,0003.26
2022-10-30 16:28:00,,0829.3,5.01,0.00,24.4,23.3,00.0,33.0,26.3,10.1,0000.0,0007.82,0003.58,0003.26
2022-10-30 16:29:00,,0829.3,4.98,0.00,24.4,23.3,00.0,33.0,26.3,09.9,0000.0,0007.18,0003.56,0003.24
2022-10-30 16:30:00,,0829.1,5.01,0.00,24.4,23.4,00.0,33.0,26.3,09.9,0000.0,0006.46,0003.51,0003.20
2022-10-30 16:31:00,,0829.3,5.01,0.00,24.4,23.4,00.0,33.1,26.4,09.9,0000.0,0006.18,0003.47,0003.18
2022-10-30 16:32:00,,0829.3,4.98,0.00,24.4,23.4,00.0,33.1,26.4,09.9,0000.0,0006.31,0003.46,0003.15
2022-10-30 16:33:00,,0829.2,5.00,0.00,24.5,23.4,00.0,33.1,26.4,09.9,0000.0,0006.24,0003.43,0003.12
2022-10-30 16:34:00,,0829.2,5.00,0.00,24.5,23.4,00.0,33.1,26.4,09.8,0000.0,0006.35,0003.41,0003.09
2022-10-30 16:35:00,,0829.3,5.01,0.00,24.5,23.5,00.0,33.2,26.5,09.6,0000.0,0006.33,0003.38,0003.04
2022-10-30 16:36:00,,0829.1,4.99,0.00,24.5,23.5,00.0,33.2,26.5,09.6,0000.0,0006.19,0003.32,0003.00
2022-10-30 16:37:00,,0829.0,5.01,0.00,24.6,23.5,00.0,33.2,26.5,09.6,0000.0,0006.11,0003.28,0002.97
2022-10-30 16:38:00,,0828.8,4.99,0.00,24.6,23.5,00.0,33.2,26.5,09.7,0000.0,0005.43,0003.26,0002.93
2022-10-30 16:39:00,,0828.7,5.01,0.00,24.6,23.5,00.0,33.2,26.5,10.0,0000.0,0005.28,0003.21,0002.87
2022-10-30 16:40:00,,0828.7,4.99,0.00,24.6,23.5,00.0,33.3,26.5,10.0,0000.0,0005.45,0003.20,0002.83
2022-10-30 16:41:00,,0828.7,5.01,0.00,24.6,23.6,00.0,33.3,26.5,10.0,0000.0,0006.69,0003.21,0002.83
2022-10-30 16:42:00,,0828.7,4.99,0.00,24.7,23.6,00.0,33.3,26.6,10.0,0000.0,0007.36,0003.23,0002.83
2022-10-30 16:43:00,,0828.8,5.01,0.00,24.7,23.6,00.0,33.3,26.6,09.9,0000.0,0007.25,0003.21,0002.82
2022-10-30 16:44:00,,0828.7,5.00,0.00,24.7,23.6,00.0,33.4,26.6,09.7,0000.0,0007.26,0003.23,0002.82
2022-10-30 16:45:00,,0828.7,5.01,0.00,24.7,23.7,00.0,33.4,26.7,09.7,0000.0,0008.04,0003.25,0002.81
2022-10-30 16:46:00,,0829.0,5.01,0.00,24.7,23.7,00.0,33.4,26.7,09.7,0000.0,0008.15,0003.25,0002.81
2022-10-30 16:47:00,,0829.3,4.99,0.00,24.8,23.7,00.0,33.4,26.7,09.7,0000.0,0008.15,0003.24,0002.81
2022-10-30 16:48:00,,0829.0,5.01,0.00,24.8,23.7,00.0,33.4,26.7,09.7,0000.0,0008.15,0003.24,0002.80
2022-10-30 16:49:00,,0829.2,5.01,0.00,24.8,23.8,00.0,33.5,26.8,09.6,0000.0,0008.02,0003.24,0002.79
2022-10-30 16:50:00,,0828.8,5.00,0.00,24.8,23.8,00.0,33.5,26.8,09.5,0000.0,0008.12,0003.25,0002.77
2022-10-30 16:51:00,,0829.1,5.00,0.00,24.9,23.8,00.0,33.5,26.8,09.6,0000.0,0008.16,0003.28,0002.77
2022-10-30 16:52:00,,0829.3,5.01,0.00,24.9,23.8,00.0,33.5,26.8,09.7,0000.0,0007.78,0003.27,0002.74
2022-10-30 16:53:00,,0829.1,4.98,0.00,24.9,23.9,00.0,33.6,26.8,09.7,0000.0,0008.03,0003.26,0002.73
2022-10-30 16:54:00,,0829.2,5.00,0.00,24.9,23.9,00.0,33.6,26.9,09.5,0000.0,0008.20,0003.26,0002.74
2022-10-30 16:55:00,,0829.2,5.00,0.00,25.0,23.9,00.0,33.6,26.9,09.4,0000.0,0008.18,0003.25,0002.74
2022-10-30 16:56:00,,0828.9,4.98,0.00,25.0,23.9,00.0,33.6,26.9,09.2,0000.0,0008.10,0003.24,0002.74
2022-10-30 16:57:00,,0829.1,5.02,0.00,25.0,24.0,00.0,33.6,26.9,09.2,0000.0,0008.20,0003.24,0002.74
2022-10-30 16:58:00,,0828.7,4.98,0.00,25.0,24.0,00.0,33.7,26.9,09.5,0000.0,0008.32,0003.25,0002.76
2022-10-30 16:59:00,,0828.7,5.02,0.00,25.1,24.0,00.0,33.7,27.0,09.4,0000.0,0008.41,0003.28,0002.79
